Dillon, MT

3:36 AM MST on February 23, 2018 (GMT -0700)
Dillon

Weather History for KDLN - November, 2013

Change the Weather History Date:

Wednesday, November 20, 2013

  Actual Average Record
Temperature  
Mean Temperature 23 °F 28 °F  
Max Temperature 35 °F 38 °F 62 °F (1989)
Min Temperature 10 °F 18 °F -22 °F (1977)
Degree Days  
Heating Degree Days 42    
Month to date heating degree days 575  
Since 1 July heating degree days 1580  
Cooling Degree Days 0    
Month to date cooling degree days 0  
Year to date cooling degree days 247  
Moisture  
Dew Point 23 °F    
Average Humidity 73    
Maximum Humidity 92    
Minimum Humidity 53    
Precipitation  
Precipitation 0.06 in 0.02 in 0.16 in (2007)
Month to date precipitation 0.08 0.27  
Year to date precipitation 9.81 10.20  
Snow  
Snow 0.00 in - - ()
Snow Depth 0.00 in    
Sea Level Pressure  
Sea Level Pressure 29.83 in    
Wind  
Wind Speed 13 mph (SE)    
Max Wind Speed 24 mph    
Max Gust Speed 32 mph    
Visibility 10 miles    
Events Rain , Snow    
T = Trace of Precipitation, MM = Missing Value Source: NWS Daily Summary

Daily Weather History Graph

Daily Weather History Graph

Search for Another Location

Airport or City:

Trip Planner

Search our weather history database for the weather conditions in past years. The results will help you decide how hot, cold, wet, or windy it might be!

Date:

Astronomy

Nov. 20, 2013 Rise Set
Actual Time 7:35 AM MST 4:55 PM MST
Civil Twilight 7:03 AM MST 5:28 PM MST
Nautical Twilight 6:27 AM MST 6:04 PM MST
Astronomical Twilight 5:52 AM MST 6:39 PM MST
Moon 7:42 PM MST (11/20) 10:03 AM MST (11/20)
Length of Visible Light 10h 24m
Length of Day
9h 19m
Waning Gibbous, 91% of the Moon is Illuminated
Nov 20
Waning Gibbous
Nov 25
Last Quarter
Dec 2
New
Dec 9
First Quarter
Dec 17
Full

Hourly Weather History & Observations

Time (MST) Temp. Windchill Dew Point Humidity Pressure Visibility Wind Dir Wind Speed Gust Speed Precip Events Conditions
12:53 AM 42.1 °F 36.1 °F 28.0 °F 58% 29.65 in 10.0 mi SSW 10.4 mph - N/A   Overcast
1:53 AM 42.1 °F 35.7 °F 28.0 °F 58% 29.62 in 10.0 mi South 11.5 mph 18.4 mph N/A   Overcast
2:53 AM 39.9 °F 35.1 °F 27.0 °F 60% 29.64 in 10.0 mi SW 6.9 mph - N/A   Overcast
3:53 AM 37.0 °F - 26.1 °F 65% 29.64 in 10.0 mi Calm Calm - N/A   Mostly Cloudy
4:53 AM 39.9 °F 33.4 °F 28.0 °F 63% 29.62 in 10.0 mi SW 10.4 mph - N/A   Overcast
5:53 AM 42.1 °F 37.1 °F 27.0 °F 55% 29.62 in 10.0 mi South 8.1 mph - N/A   Overcast
6:53 AM 41.0 °F 33.5 °F 28.0 °F 60% 29.64 in 10.0 mi SW 13.8 mph - N/A   Overcast
7:53 AM 39.0 °F 32.8 °F 32.0 °F 76% 29.67 in 10.0 mi West 9.2 mph - 0.00 in   Overcast
8:17 AM 35.6 °F 26.6 °F 32.0 °F 87% 29.72 in 3.0 mi West 13.8 mph - 0.03 in Rain Light Rain
8:53 AM 36.0 °F 28.5 °F 33.1 °F 89% 29.72 in 6.0 mi South 10.4 mph - 0.05 in Rain Light Rain
9:21 AM 35.6 °F 26.6 °F 33.8 °F 93% 29.75 in 10.0 mi SSE 13.8 mph - 0.00 in   Overcast
9:53 AM 36.0 °F 28.5 °F 33.1 °F 89% 29.76 in 10.0 mi South 10.4 mph - 0.00 in   Overcast
10:05 AM 35.6 °F 27.5 °F 33.8 °F 93% 29.78 in 10.0 mi South 11.5 mph - 0.00 in   Overcast
10:41 AM 35.6 °F 27.1 °F 33.8 °F 93% 29.78 in 10.0 mi South 12.7 mph - 0.01 in   Overcast
10:51 AM 35.6 °F 27.1 °F 33.8 °F 93% 29.79 in 9.0 mi South 12.7 mph - 0.01 in Snow Light Snow
10:53 AM 36.0 °F 27.5 °F 33.1 °F 89% 29.78 in 8.0 mi South 12.7 mph - 0.01 in Snow Light Snow
12:53 PM - - - N/A% 29.82 in - ENE 11.5 mph - N/A   Unknown
1:53 PM 34.0 °F 23.4 °F 23.0 °F 64% 29.85 in 10.0 mi NE 17.3 mph 24.2 mph N/A   Unknown
2:53 PM 32.0 °F 20.5 °F 23.0 °F 69% 29.88 in 10.0 mi NE 18.4 mph - N/A   Overcast
3:53 PM 26.1 °F 12.7 °F 19.0 °F 75% 29.91 in 10.0 mi NE 18.4 mph - N/A   Clear
4:53 PM 19.9 °F 3.9 °F 15.1 °F 81% 29.96 in 10.0 mi NE 20.7 mph - N/A   Scattered Clouds
5:53 PM 16.0 °F -2.5 °F 10.0 °F 77% 30.01 in 10.0 mi NE 24.2 mph - N/A   Clear
6:53 PM 14.0 °F -2.5 °F 8.1 °F 77% 30.06 in 10.0 mi NE 17.3 mph - N/A   Clear
7:53 PM 12.9 °F -6.1 °F 7.0 °F 77% 30.09 in 10.0 mi ENE 23.0 mph 32.2 mph N/A   Clear
8:53 PM 12.9 °F -4.4 °F 7.0 °F 77% 30.13 in 10.0 mi ENE 18.4 mph - N/A   Clear
9:53 PM 12.0 °F -2.7 °F 6.1 °F 77% 30.14 in 10.0 mi ENE 12.7 mph - N/A   Clear
10:53 PM 12.0 °F 0.5 °F 6.1 °F 77% 30.16 in 10.0 mi NE 8.1 mph - N/A   Clear
11:53 PM 10.0 °F 0.4 °F 5.0 °F 80% 30.17 in 10.0 mi ENE 5.8 mph - N/A   Clear